This demonstration page uses our WeatherBlox Daily Observations layout. Learn more.

Left ArrowRight Arrow

38.89511, -77.03637

Hourly Observations for November 16, 2015

Temp ( °F °C ) Dew Point ( °F °C ) Humidity (%) Winds ( mph kmh ) Pressure ( in mb ) Visibility ( mi km ) Precip ( " mm )
12:52 am 00:52 Clear 50 10 34 1.1 54 54 S 8 13 30.29 1026 10 16 N/A
1:52 am 01:52 Clear 48 8.9 36 2.2 63 63 S 7 11 30.30 1026 10 16 N/A
2:52 am 02:52 Clear 46 7.8 37 2.8 71 71 S 6 9 30.30 1026 10 16 N/A
3:52 am 03:52 Clear 45 7.2 33 0.6 63 63 SSW 3 6 30.30 1026 10 16 N/A
4:52 am 04:52 Clear 44 6.7 34 1.1 68 68 N N/A 30.31 1026 10 16 N/A
5:52 am 05:52 Clear 42 5.6 33 0.6 71 71 N N/A 30.31 1027 10 16 N/A
6:52 am 06:52 Mostly Sunny 43 6.1 34 1.1 71 71 SSW 3 6 30.32 1027 10 16 N/A
7:52 am 07:52 Mostly Sunny 46 7.8 39 3.9 77 77 S 3 6 30.33 1027 10 16 N/A
8:52 am 08:52 Mostly Sunny 49 9.4 40 4.4 71 71 SSE 3 6 30.34 1027 10 16 N/A
9:52 am 09:52 Mostly Sunny 54 12.2 39 3.9 57 57 N N/A 30.34 1027 10 16 N/A
10:52 am 10:52 Mostly Sunny 58 14.4 39 3.9 50 50 ESE 3 6 30.32 1027 10 16 N/A
11:52 am 11:52 Mostly Sunny 66 18.9 36 2.2 33 33 NW 6 9 30.30 1026 10 16 N/A
12:52 pm 12:52 Mostly Sunny 68 20 37 2.8 32 32 E 3 6 30.27 1025 10 16 N/A
1:52 pm 13:52 Mostly Sunny 67 19.4 34 1.1 30 30 E 5 7 30.25 1024 10 16 N/A
2:52 pm 14:52 Mostly Sunny 69 20.6 34 1.1 27 27 W 8 13 30.25 1024 10 16 N/A
3:52 pm 15:52 Mostly Sunny 67 19.4 34 1.1 30 30 WNW 7 11 30.25 1025 10 16 N/A
4:52 pm 16:52 Mostly Sunny 65 18.3 32 undefined 29 29 WNW 7 11 30.26 1025 10 16 N/A
5:52 pm 17:52 Mostly Clear 64 17.8 32 undefined 30 30 W 3 6 30.26 1025 10 16 N/A
6:52 pm 18:52 Mostly Clear 55 12.8 37 2.8 51 51 N N/A 30.27 1025 10 16 N/A
7:52 pm 19:52 Mostly Clear 53 11.7 42 5.6 66 66 S 7 11 30.27 1025 10 16 N/A
8:52 pm 20:52 Mostly Clear 52 11.1 43 6.1 72 72 N N/A 30.28 1025 10 16 N/A
9:52 pm 21:52 Mostly Clear 51 10.6 44 6.7 77 77 N N/A 30.29 1026 10 16 N/A
10:52 pm 22:52 Mostly Cloudy 50 10 44 6.7 80 80 NE 3 6 30.29 1026 10 16 N/A
11:52 pm 23:52 Cloudy 49 9.4 42 5.6 77 77 N N/A 30.29 1026 10 16 N/A

Powered by AerisWeather